Aurora, IL

2:22 PM CDT on April 28, 2017 (GMT -0500)
Aurora Municipal

Weather History for KARR - January, 2014

Change the Weather History Date:

Sunday, January 19, 2014

  Actual Average Record
Temperature  
Mean Temperature 20 °F 21 °F  
Max Temperature 38 °F 29 °F 55 °F (2006)
Min Temperature 2 °F 12 °F -6 °F (2008)
Degree Days  
Heating Degree Days 45 45  
Month to date heating degree days 617 835  
Since 1 July heating degree days 3446 3484  
Cooling Degree Days 0 0  
Month to date cooling degree days 0 0  
Year to date cooling degree days 0 0  
Moisture  
Dew Point 17 °F    
Average Humidity 80    
Maximum Humidity 91    
Minimum Humidity 69    
Precipitation  
Precipitation 0.00 in 0.05 in 0.22 in (2017)
Month to date precipitation 0.80 0.80  
Year to date precipitation 0.80 0.80  
Sea Level Pressure  
Sea Level Pressure 29.73 in    
Wind  
Wind Speed 13 mph (SW)    
Max Wind Speed 26 mph    
Max Gust Speed 34 mph    
Visibility 7 miles    
Events      
T = Trace of Precipitation, MM = Missing Value Source: NWS Daily Summary

Daily Weather History Graph

Daily Weather History Graph

Search for Another Location

Airport or City:

Trip Planner

Search our weather history database for the weather conditions in past years. The results will help you decide how hot, cold, wet, or windy it might be!

Date:

Astronomy

Jan. 19, 2014 Rise Set
Actual Time 7:16 AM CST 4:53 PM CST
Civil Twilight 6:46 AM CST 5:23 PM CST
Nautical Twilight 6:12 AM CST 5:57 PM CST
Astronomical Twilight 5:39 AM CST 6:30 PM CST
Moon 8:34 PM CST (1/19) 8:43 AM CST (1/19)
Length of Visible Light 10h 37m
Length of Day
9h 36m
Waning Gibbous, 89% of the Moon is Illuminated
Jan 19
Waning Gibbous
Jan 23
Last Quarter
Jan 30
New
Feb 6
First Quarter
Feb 14
Full

Hourly Weather History & Observations

Time (CST) Temp. Windchill Dew Point Humidity Pressure Visibility Wind Dir Wind Speed Gust Speed Precip Events Conditions
12:00 AM 5.0 °F -8.1 °F 1.0 °F 84% 29.86 in 5.0 mi WNW 8.1 mph - N/A   Scattered Clouds
12:52 AM 3.9 °F -9.4 °F 1.0 °F 88% 29.90 in 5.0 mi West 8.1 mph - N/A   Clear
1:52 AM 6.1 °F -2.8 °F 3.0 °F 87% 29.89 in 5.0 mi SW 4.6 mph - N/A   Clear
2:52 AM 7.0 °F -4.5 °F 3.0 °F 84% 29.91 in 6.0 mi WSW 6.9 mph - N/A   Clear
3:52 AM 7.0 °F -5.7 °F 3.0 °F 84% 29.90 in 6.0 mi WSW 8.1 mph - N/A   Clear
4:52 AM 9.0 °F -5.9 °F 5.0 °F 84% 29.87 in 6.0 mi SW 11.5 mph - N/A   Clear
5:52 AM 10.9 °F -3.4 °F 7.0 °F 84% 29.86 in 5.0 mi SW 11.5 mph - N/A   Clear
6:52 AM 12.9 °F -1.6 °F 9.0 °F 84% 29.83 in 7.0 mi SW 12.7 mph - N/A   Partly Cloudy
7:52 AM 12.9 °F -2.2 °F 9.0 °F 84% 29.82 in 6.0 mi SW 13.8 mph - N/A   Clear
8:52 AM 17.1 °F 1.5 °F 12.0 °F 81% 29.81 in 6.0 mi SSW 17.3 mph - N/A   Haze
9:52 AM 21.0 °F 6.2 °F 15.1 °F 78% 29.81 in 5.0 mi SW 18.4 mph 28.8 mph N/A   Haze
10:52 AM 24.1 °F 9.4 °F 18.0 °F 77% 29.76 in 5.0 mi SW 20.7 mph 34.5 mph 0.00 in   Haze
11:52 AM 27.0 °F 13.2 °F 19.9 °F 75% 29.72 in 7.0 mi SW 20.7 mph 27.6 mph N/A   Clear
12:52 PM 30.0 °F 19.1 °F 21.9 °F 72% 29.70 in 8.0 mi SW 15.0 mph 23.0 mph N/A   Clear
1:52 PM 30.9 °F 20.7 °F 23.0 °F 72% 29.67 in 8.0 mi SW 13.8 mph - N/A   Clear
2:52 PM 32.0 °F 20.8 °F 24.1 °F 73% 29.64 in 8.0 mi SW 17.3 mph - N/A   Clear
3:52 PM 34.0 °F 24.6 °F 25.0 °F 70% 29.62 in 8.0 mi SSW 13.8 mph - N/A   Clear
4:52 PM 30.9 °F 25.2 °F 24.1 °F 76% 29.61 in 7.0 mi South 5.8 mph - N/A   Clear
5:52 PM 33.1 °F 24.9 °F 25.0 °F 72% 29.60 in 9.0 mi SSW 10.4 mph - N/A   Clear
6:52 PM 33.1 °F 28.7 °F 26.1 °F 75% 29.60 in 9.0 mi SW 4.6 mph - N/A   Clear
7:52 PM 35.1 °F 27.4 °F 27.0 °F 72% 29.58 in 10.0 mi SW 10.4 mph - N/A   Clear
8:52 PM 36.0 °F 26.7 °F 28.0 °F 73% 29.56 in 10.0 mi SW 15.0 mph - N/A   Clear
9:52 PM 37.0 °F 27.0 °F 28.0 °F 70% 29.57 in 10.0 mi WSW 18.4 mph - N/A   Clear
10:52 PM 37.0 °F 26.7 °F 28.9 °F 73% 29.59 in 10.0 mi West 19.6 mph - N/A   Clear
11:52 PM 33.1 °F 23.9 °F 27.0 °F 78% 29.62 in 10.0 mi WNW 12.7 mph - N/A   Clear